FW6482 Weather Reports


time (UTC)temp
F
wind
direction
speed
knots
gust
knots
rain 1hr
in
rain 24hr
in
rain mn
in
humidity
%
barometer
mb
20260508081518 54 111 2.6 6.1 0.00 0.00 0.00 80 1015.5
20260508080014 54 117 1.7 5.2 0.00 0.00 0.00 82 1015.6
20260508074511 53 123 0.9 3.5 0.00 0.00 0.00 84 1015.5
20260508073007 52 123 1.7 5.2 0.00 0.00 0.00 85 1015.6
20260508071506 51 121 2.6 6.1 0.00 0.00 0.00 87 1015.5
20260508070142 50 139 4.3 7.0 0.00 0.00 0.00 88 1015.5
20260508064608 50 12 0.9 2.6 0.00 0.00 0.00 89 1015.4
20260508063052 49 12 0.9 2.6 0.00 0.00 0.00 90 1015.2
20260508061552 48 12 1.7 3.5 0.00 0.00 0.00 91 1015.1
20260508060046 48 5 0.9 3.5 0.00 0.00 0.00 91 1015.0
20260508054545 47 5 1.7 3.5 0.00 0.00 0.00 91 1014.9
20260508053043 47 360 0.9 2.6 0.00 0.00 0.00 92 1014.9
20260508051537 47 360 0.9 2.6 0.00 0.00 0.00 92 1014.9
20260508050034 47 360 0.0 1.7 0.00 0.00 0.00 92 1014.8
20260508044532 47 360 0.9 1.7 0.00 0.00 0.00 91 1014.7
20260508043050 47 360 0.0 1.7 0.00 0.00 0.00 91 1014.6
20260508041530 47 360 0.9 2.6 0.00 0.00 0.00 91 1014.5
20260508040030 47 360 0.9 1.7 0.00 0.00 0.00 91 1014.5
20260508034526 47 360 0.9 2.6 0.00 0.00 0.00 91 1014.5
20260508033024 47 360 0.0 1.7 0.00 0.00 0.00 90 1014.4
20260508031524 47 360 0.0 1.7 0.00 0.00 0.00 90 1014.4
20260508030032 47 360 1.7 3.5 0.00 0.00 0.00 90 1014.3
20260508024523 47 360 0.9 2.6 0.00 0.00 0.00 90 1014.4
20260508023021 47 360 0.0 1.7 0.00 0.00 0.00 90 1014.4
20260508021519 47 360 0.0 2.6 0.00 0.00 0.00 89 1014.3
20260508020018 47 360 0.0 1.7 0.00 0.00 0.00 89 1014.4
20260508014518 47 360 0.9 2.6 0.00 0.00 0.00 89 1014.3
20260508013016 48 360 0.9 3.5 0.00 0.00 0.00 88 1014.3
20260508011515 48 360 0.9 2.6 0.00 0.00 0.00 88 1014.4
20260508010138 48 360 0.9 2.6 0.00 0.00 0.00 87 1014.3
20260508004511 48 360 1.7 2.6 0.00 0.01 0.00 86 1014.4
20260508003009 48 360 0.9 1.7 0.00 0.01 0.00 83 1014.5
20260508001605 49 360 0.0 0.9 0.00 0.01 0.00 83 1014.4
20260507234540 49 360 0.0 0.0 0.00 0.01 0.00 82 1014.5
20260507231529 50 360 0.0 0.9 0.00 0.01 0.00 80 1014.7
20260507230024 50 360 0.0 0.9 0.00 0.01 0.00 81 1014.7
20260507224523 51 360 0.9 1.7 0.00 0.01 0.00 80 1014.6
20260507223021 51 360 0.0 0.9 0.00 0.01 0.00 80 1014.5
20260507221518 51 360 0.0 1.7 0.00 0.01 0.00 78 1014.5
20260507214512 52 360 0.9 1.7 0.00 0.01 0.01 77 1014.5
20260507213011 52 360 0.0 0.9 0.00 0.01 0.01 76 1014.4
20260507211510 53 360 0.0 0.0 0.00 0.01 0.01 76 1014.3
20260507210011 53 360 0.0 1.7 0.00 0.01 0.01 75 1014.2
20260507204510 53 360 0.9 1.7 0.00 0.01 0.01 74 1014.2
20260507203007 54 360 0.0 1.7 0.00 0.01 0.01 75 1014.1
20260507201505 54 360 0.9 1.7 0.00 0.01 0.01 74 1014.0
20260507200005 54 360 0.9 1.7 0.00 0.01 0.01 73 1013.9
20260507194503 55 360 0.0 1.7 0.00 0.01 0.01 71 1013.9
20260507193001 55 360 0.9 1.7 0.00 0.01 0.01 71 1013.7
20260507191617 56 360 0.9 1.7 0.00 0.01 0.01 72 1013.7
20260507190100 56 360 0.0 1.7 0.00 0.01 0.01 72 1013.6
20260507184605 57 360 0.0 1.7 0.00 0.02 0.01 70 1013.4
20260507183103 57 360 0.0 2.6 0.00 0.02 0.01 68 1013.3
20260507181556 58 360 1.7 3.5 0.00 0.02 0.01 66 1013.3
20260507180056 59 360 0.0 1.7 0.00 0.02 0.01 65 1013.3
20260507174554 59 360 0.0 3.5 0.00 0.02 0.01 62 1013.1
20260507173053 60 360 0.0 0.9 0.00 0.02 0.01 62 1013.0
20260507171552 60 360 0.0 0.9 0.00 0.02 0.01 61 1013.0
20260507170055 60 360 0.0 2.6 0.00 0.02 0.01 58 1012.9
20260507164605 61 360 0.9 2.6 0.00 0.02 0.01 57 1012.9
20260507163049 61 360 1.7 4.3 0.00 0.02 0.01 54 1012.9
20260507161552 61 225 0.9 2.6 0.00 0.02 0.01 55 1012.9
20260507160051 61 225 0.0 2.6 0.00 0.02 0.01 53 1012.9
20260507154548 62 225 0.0 3.5 0.00 0.02 0.01 57 1012.8
20260507153049 62 225 0.9 2.6 0.00 0.02 0.01 60 1012.8
20260507151547 62 225 0.0 2.6 0.00 0.02 0.01 54 1012.8
20260507150049 61 224 0.0 3.5 0.00 0.02 0.01 55 1012.7
20260507144546 62 224 0.9 4.3 0.00 0.03 0.01 57 1012.7
20260507143100 61 223 2.6 5.2 0.00 0.03 0.01 57 1012.7
20260507141604 63 261 1.7 5.2 0.00 0.03 0.01 58 1012.9
20260507140045 64 235 1.7 7.0 0.00 0.03 0.01 56 1012.9
20260507134544 64 162 1.7 7.0 0.00 0.04 0.01 52 1013.0
20260507133044 65 236 0.9 7.8 0.00 0.04 0.01 53 1013.0
20260507131552 66 189 1.7 5.2 0.00 0.04 0.01 51 1012.9
20260507130043 64 355 1.7 4.3 0.00 0.04 0.01 55 1012.9
20260507124537 64 260 2.6 9.6 0.00 0.06 0.01 54 1012.9
20260507123039 63 235 1.7 7.0 0.00 0.06 0.01 57 1012.9
20260507121535 63 89 0.9 3.5 0.00 0.06 0.01 57 1012.8
20260507120031 62 234 0.9 7.8 0.00 0.06 0.01 58 1012.8
20260507114529 61 350 0.9 3.5 0.00 0.06 0.01 60 1012.7
20260507113026 61 350 1.7 3.5 0.00 0.06 0.01 64 1012.7
20260507111524 61 36 1.7 5.2 0.00 0.06 0.01 65 1012.8
20260507110022 60 32 3.5 7.8 0.00 0.06 0.01 67 1012.8
20260507104518 58 336 0.0 4.3 0.00 0.06 0.01 74 1012.9
20260507103017 58 257 0.0 3.5 0.00 0.06 0.01 73 1012.9
20260507101516 58 49 0.9 4.3 0.00 0.06 0.01 73 1012.9
20260507100014 57 340 0.0 2.6 0.00 0.06 0.01 76 1012.8
20260507094510 57 19 1.7 5.2 0.00 0.06 0.01 77 1012.7
20260507093009 57 269 1.7 7.8 0.00 0.06 0.01 78 1012.5
20260507091511 56 221 1.7 5.2 0.00 0.06 0.01 80 1012.5
20260507090005 55 301 0.9 5.2 0.00 0.06 0.01 80 1012.4
20260507084600 54 355 0.9 3.5 0.00 0.08 0.01 85 1012.5
20260507083058 53 29 0.0 3.5 0.00 0.08 0.01 89 1012.3